Location: Dehesa de la Cepeda
(40.6574°N, 4.3013°W)
Time: 21:24:56
(UTC+00:00)

Vanguard 2 Rocket - Pass Details

Date: 05 August 2021
Orbit: 556 x 3324 km, 32.9° (Epoch: 19 September)

Event Time Altitude Azimuth Distance (km) Brightness Sun altitude
Rises 06:14:08 0° 235° (SW) 3,615 9.4 9.2°
Reaches altitude 10° 06:17:35 10° 221° (SW) 2,325 8.6 9.9°
Maximum altitude 06:21:32 22° 170° (S) 1,371 7.9 10.6°
Drops below altitude 10° 06:24:45 10° 117° (ESE) 1,866 9.5 11.2°
Sets 06:27:11 0° 100° (E) 2,721 10.7 11.6°
